Regional Weather Roundup
Issued by NWS

Home | Current Version | Previous Version | Text Only | Print | Product List | Glossary Off
Versions: 1 2 3 4 5 6 7 8 9 10 11 12 13 14 15 16 17 18 19 20 21 22 23 24 25 26 27 28 29 30 31 32 33 34 35 36 37 38 39 40 41 42 43 44 45 46 47 48 49 50

047
ASUS43 KDTX 092110
RWRMI
MICHIGAN HOURLY REGIONAL WEATHER ROUNDUP
NATIONAL WEATHER SERVICE DETROIT/PONTIAC MI
400 PM EST TUE FEB 09 2016

NOTE: "FAIR" INDICATES FEW OR NO CLOUDS BELOW 12,000 FEET WITH NO
SIGNIFICANT WEATHER AND/OR OBSTRUCTION TO VISIBILITY.

MIZ047>049-052>055-059>063-066>070-074>076-081>083-092200-
SOUTHEAST LOWER MICHIGAN

CITY           SKY/WX    TMP DP  RH WIND       PRES   REMARKS
ADRIAN         CLOUDY    27  19  72 NW13G22   29.65R WCI  16
ALMA           CLOUDY    28  22  79 W16G22    29.64R WCI  16
ANN ARBOR      CLOUDY    27  20  75 NW16G28   29.62R WCI  15
BAD AXE        LGT SNOW  29  27  92 NW15G24   29.54R WCI  18
CARO           CLOUDY    28  25  86 W10G17    29.57R WCI  19
DETROIT CITY   LGT SNOW  28  23  81 W12G18    29.59R WCI  18
DETROIT        LGT SNOW  28  23  81 W14       29.62R WCI  17
FLINT          LGT SNOW  29  22  75 W20       29.60R WCI  16
GROSSE ILE     LGT SNOW  28  27  93 W10       29.60R WCI  19
HILLSDALE      CLOUDY    26  19  73 W20       29.64R WCI  12
HOWELL         LGT SNOW  27  22  80 W15G22    29.61R WCI  16

CITY           SKY/WX    TMP DP  RH WIND       PRES   REMARKS
JACKSON        CLOUDY    26  18  71 NW15      29.64R WCI  14
LAMBERTVILLE   CLOUDY    28  22  79 NW7       29.65R WCI  21
LANSING        CLOUDY    27  19  72 W15       29.65R WCI  15
LAPEER         LGT SNOW  28  25  89 W13G18    29.57R WCI  17
MASON          CLOUDY    26  20  77 W17       29.63R WCI  13
MONROE         CLOUDY    29  24  80 W15       29.62R WCI  18
MT. CLEMENS    LGT SNOW  29  24  84 W13       29.55R FOG     WCI  18
PONTIAC        LGT SNOW  27  22  81 W16G25    29.57R FOG     WCI  15
PORT HOPE        N/A     30  29  96 NW21G30   29.50R WCI  17
PORT HURON     LGT SNOW  28  27  93 W8        29.55R WCI  20
TRI CITIES     LGT SNOW  29  22  75 NW16      29.61R WCI  17
MIDLAND        LGT SNOW  28  22  77 NW8G16    29.61R WCI  20
TROY           CLOUDY    30  26  83 W13G20    29.60R HAZE    WCI  20
SAGINAW HB     FLURRIES  28  27  93 W17       29.59R WCI  16
$$
MIZ043>046-050>051-056>058-064>065-071>073-077>080-092200-
SOUTHWEST LOWER MICHIGAN

CITY           SKY/WX    TMP DP  RH WIND       PRES   REMARKS
BATTLE CREEK   FLURRIES  26  19  74 NW17      29.68R WCI  13
BENTON HARBOR  LGT SNOW  24  17  74 NW14G25   29.78R WCI  12
BIG RAPIDS     FLURRIES  25  19  78 NW9       29.65R WCI  15
COLDWATER      FLURRIES  26  20  76 NW16      29.68R WCI  14
FREMONT        FLURRIES  24  18  77 NW14G23   29.70R WCI  12
HOLLAND        LGT SNOW  26  20  77 NW16      29.74R WCI  14
GRAND RAPIDS   FLURRIES  26  19  74 W17       29.69R WCI  13
IONIA          CLOUDY    27  18  70 NW13G25   29.65R WCI  16
KALAMAZOO      FLURRIES  26  17  68 NW18G30   29.70R WCI  13
LUDINGTON      LGT SNOW  23  19  85 N14G24    29.74R WCI  10
MARSHALL       CLOUDY    27  18  69 NW12G18   29.66R WCI  16
MOUNT PLEASANT FLURRIES  28  19  68 W14       29.63R WCI  17
MUSKEGON       FLURRIES  25  16  68 NW17G24   29.74R WCI  12
SOUTH HAVEN    LGT SNOW  25  19  78 NW13G21   29.75R WCI  13
$$
MIZ016>042-092200-
NORTHERN LOWER MICHIGAN

CITY           SKY/WX    TMP DP  RH WIND       PRES   REMARKS
ALPENA         FLURRIES  27  21  78 NW12G18   29.57R WCI  17
BEAVER ISLAND  LGT SNOW  22  16  76 N9G20     29.69R WCI  12
BELLAIRE       LGT SNOW  26  21  80 NW7       29.67R WCI  19
CADILLAC       FLURRIES  23  17  77 NW14G21   29.62R WCI  11
CHARLEVOIX     LGT SNOW  25  20  81 N15G24    29.70R WCI  12
FRANKFORT      LGT SNOW  24  17  74 NW14G24   29.72R WCI  12
GAYLORD        LGT SNOW  23  17  78 NW8G20    29.59R WCI  14
GRAYLING       LGT SNOW  26  20  79 W12G20    29.60R WCI  15
HARBOR SPRINGS LGT SNOW  23  17  77 NW7       29.65R WCI  14
HOUGHTON LAKE  FLURRIES  25  18  74 NW15      29.60R WCI  13
MANISTEE       CLOUDY    25  16  68 NW16G23   29.73R WCI  12
OSCODA         LGT SNOW  29  26  88 NW16      29.55R VSB 1   WCI  17
PELLSTON       LGT SNOW  21  16  81 NW18      29.64R WCI   6
ROGERS CITY    LGT SNOW  27  23  85 NW10G21   29.60R WCI  17
TRAVERSE CITY  LGT SNOW  25  18  74 NW16G22   29.68R WCI  12
$$
MIZ007>008-015-092200-
EASTERN UPPER MICHIGAN

CITY           SKY/WX    TMP DP  RH WIND       PRES   REMARKS
KINROSS        CLOUDY    23  19  86 NW14G22   29.60S WCI  11
MACKINAC ISLAN CLOUDY    22  18  81 NW10G18   29.62R FOG     WCI  12
NEWBERRY       LGT SNOW  18  13  82 NW10G23   29.67R WCI   6
S. S. MARIE    CLOUDY    23  15  71 NW9       29.62R WCI  13
MUNISING         N/A     18  13  80 N24G38    29.77R WCI   0
$$
MIZ004>006-011>014-085-092200-
CENTRAL UPPER MICHIGAN

CITY           SKY/WX    TMP DP  RH WIND       PRES   REMARKS
MANISTIQUE     LGT SNOW  19  12  72 NW20G36   29.70R WCI   4
ESCANABA       CLOUDY    18   9  68 NW17G29   29.78R WCI   2
MENOMINEE      CLOUDY    18   7  62 N16G22    29.81R WCI   3
SAWYER-GWINN   SNOW      12   9  85 N26G32    29.76R VSB 1/2 WCI  -8
$$
MIZ001>003-009>011-084-092200-
WESTERN UPPER MICHIGAN

CITY           SKY/WX    TMP DP  RH WIND       PRES   REMARKS
IRON MOUNTAIN  LGT SNOW  13   4  67 N16       29.81R WCI  -3
HOUGHTON       LGT SNOW  11   5  77 N22G30    29.89R VSB 3/4 WCI  -8
COPPER HARBOR    N/A     16  12  84 NE24G36   29.89R WCI  -2
IRONWOOD       CLOUDY    10   5  79 N13G21    29.93R WCI  -5
$$

ABBREVIATIONS USED IN REMARKS
   TC - TEMPERATURE IN CELSIUS
  WCI - WIND CHILL INDEX
   HX - HEAT INDEX
  VSB - VISIBILITY





USA.gov is the U.S. government's official web portal to all federal, state and local government web resources and services.